Regional Weather Roundup
Issued by NWS

Home | Current Version | Previous Version | Graphics & Text | Print | Product List | Glossary On
Versions: 1 2 3 4 5 6 7 8 9 10 11 12 13 14 15 16 17 18 19 20 21 22 23 24 25 26 27 28 29 30 31 32 33 34 35 36 37 38 39 40 41 42 43 44 45 46 47 48 49 50
000
ASUS43 KLMK 170710
RWRKY
KENTUCKY REGIONAL WEATHER ROUNDUP
NATIONAL WEATHER SERVICE LOUISVILLE KY
300 AM EDT WED SEP 17 2014

NOTE "FAIR" INDICATES FEW OR NO CLOUDS BELOW 12,000 FEET
WITH NO SIGNIFICANT WEATHER AND/OR OBSTRUCTIONS TO VISIBILITY.

KYZ001>023-026-027-061>063-070>075-170800-
WESTERN AND SOUTH CENTRAL KENTUCKY

CITY           SKY/WX    TMP DP  RH WIND       PRES   REMARKS
PADUCAH        FOG       50  48  93 CALM      30.08F VSB 1/4
HENDERSON      CLEAR     46  43  87 CALM      30.09F
OWENSBORO      CLEAR     51  50  97 CALM      30.09F
HOPKINSVILLE   CLEAR     52  52 100 N2        30.08S
BOWLING GREEN  CLEAR     55  52  89 CALM      30.08S
GLASGOW        CLEAR     53  53 100 CALM      30.07F FOG
$$

KYZ024-025-028>034-038-045-046-053-170800-
NORTH CENTRAL KENTUCKY

CITY           SKY/WX    TMP DP  RH WIND       PRES   REMARKS
LOUISVILLE/SDF CLEAR     54  51  90 N3        30.09S
LOUISVILLE/LOU CLEAR     52  50  93 CALM      30.09S
FORT KNOX      CLEAR     49  48  97 N2        30.07F FOG
$$

KYZ035>037-039>044-047>052-055>060-089>105-170800-
NORTHEAST KENTUCKY

CITY           SKY/WX    TMP DP  RH WIND       PRES   REMARKS
LEXINGTON      CLOUDY    55  51  86 NE5       30.09F
COVINGTON      CLEAR     49  47  93 CALM      30.09S
FRANKFORT      CLOUDY    48  47  96 CALM      30.08F FOG
$$

KYZ054-064>069-076>088-106>120-170800-
SOUTHEAST KENTUCKY

CITY           SKY/WX    TMP DP  RH WIND       PRES   REMARKS
JACKSON        CLOUDY    57  54  89 CALM      30.07F
LONDON         CLOUDY    59  55  87 VRB3      30.07F
SOMERSET       NOT AVBL
MIDDLESBORO    CLEAR     55  55 100 CALM      30.06S
MONTICELLO     CLOUDY    58  57  96 CALM      30.08F FOG
$$




USA.gov is the U.S. government's official web portal to all federal, state and local government web resources and services.